This demonstration page uses our WeatherBlox Daily Observations layout. Learn more.

Left ArrowRight Arrow

Hourly Observations for May 4, 2018

Temp ( °F °C ) Dew Point ( °F °C ) Humidity (%) Winds ( mph kmh ) Pressure ( in mb ) Visibility ( mi km ) Precip ( " mm )
12:51 am 00:51 Clear 59 15 24 -4.4 26 26 NNW 6 9 30.04 1017 10 16 0.00 0.00
1:51 am 01:51 Clear 54 12.2 22 -5.6 29 29 E 3 6 30.04 1017 10 16 0.00 0.00
2:51 am 02:51 Clear 54 12.2 22 -5.6 29 29 SSE 5 7 30.04 1017 10 16 0.00 0.00
3:51 am 03:51 Clear 51 10.6 22 -5.6 32 32 SSE 3 6 30.04 1017 10 16 0.00 0.00
4:51 am 04:51 Clear 50 10 22 -5.6 33 33 SE 3 6 30.05 1018 10 16 0.00 0.00
5:51 am 05:51 Sunny 49 9.4 21 -6.1 33 33 Calm 30.08 1019 10 16 0.00 0.00
6:51 am 06:51 Sunny 57 13.9 24 -4.4 28 28 Calm 30.10 1019 10 16 0.00 0.00
7:51 am 07:51 Sunny 63 17.2 26 -3.3 25 25 Calm 30.11 1020 10 16 0.00 0.00
8:51 am 08:51 Sunny 68 20 25 -3.9 20 20 VRB 3 6 30.11 1020 10 16 0.00 0.00
9:51 am 09:51 Sunny 73 22.8 25 -3.9 17 17 ESE 3 6 30.10 1019 10 16 0.00 0.00
10:51 am 10:51 Sunny 78 25.6 24 -4.4 13 13 VRB 7 11 30.08 1019 10 16 0.00 0.00
11:51 am 11:51 Sunny 79 26.1 21 -6.1 11 11 S 5 7 30.06 1018 10 16 0.00 0.00
12:51 pm 12:51 Sunny 82 27.8 19 -7.2 9 9 SE 9 15 30.04 1017 10 16 0.00 0.00
1:51 pm 13:51 Sunny 84 28.9 19 -7.2 9 9 S 10 17 30.02 1017 10 16 0.00 0.00
2:51 pm 14:51 Sunny 85 29.4 17 -8.3 8 8 VRB 3 6 29.98 1015 10 16 0.00 0.00
3:51 pm 15:51 Sunny 85 29.4 15 -9.4 7 7 SW 3 6 29.97 1015 10 16 0.00 0.00
4:51 pm 16:51 Sunny 86 30 14 -10 7 7 S 12 19 29.96 1015 10 16 0.00 0.00
5:51 pm 17:51 Sunny 85 29.4 14 -10 7 7 S 7 11 29.95 1014 10 16 0.00 0.00
6:51 pm 18:51 Sunny 82 27.8 13 -10.6 7 7 SSW 6 9 29.94 1014 10 16 0.00 0.00
7:51 pm 19:51 Clear 77 25 14 -10 9 9 W 3 6 29.96 1014 10 16 0.00 0.00
8:51 pm 20:51 Clear 69 20.6 12 -11.1 11 11 NE 5 7 29.97 1015 10 16 0.00 0.00
9:51 pm 21:51 Clear 66 18.9 14 -10 13 13 E 8 13 29.99 1016 10 16 0.00 0.00
10:51 pm 22:51 Clear 67 19.4 14 -10 13 13 SE 7 11 29.98 1015 10 16 0.00 0.00
11:51 pm 23:51 Clear 64 17.8 14 -10 14 14 SE 8 13 29.99 1016 10 16 0.00 0.00

Powered by AerisWeather